CZ-6A DEB, 54569

Orbit data source: Space-Track

CZ-6A DEB, 54569 is space debris in SSO originally from a launch on Fri, 11 Nov 2022 UTC launched from the Taiyaun Space Center, China (TSC). Debris objects in space refer to the collection of defunct objects orbiting the Earth. Examples of debris include non-operational satellites, rocket bodies, and fragments generated from explosions, collisions, or faulty payload assembly.

Loading next visibility...
Identifier
54569, 2022-151LV
Orbit
SSO
Country
Flag of CNCN / PRC
Related business
Manufacturer
SAST
Mission
Spacecraft
Bus & Motor
Unknown
Mass
Unknown
Launch date (UTC)
2022-11-11 (3 years ago)
Launch vehicle
Unknown
Launch site
Taiyaun Space Center, China (TSC)
Object type
Payload
Rocket body
Debris
Shape & HBR
Unknown shape, 0.1 m
Radar Cross Section
Small (<0.1 m²)

Expand to show TLE details & history
Last TLE update: 2 days ago

TLE from 2 days ago
0 CZ-6A DEB
1 54569U 22151LV  25349.15122060  .00021825  00000-0  22924-2 0  9999
2 54569  98.6528  52.8317 0049070 103.5730 257.0957 14.88594414163940
Epoch: 2025-12-15T03:37Z
TLE epoch observation values (Epoch: 2025-12-15T03:37:45.459Z)
Latitude
-0.00004°
Longitude
-85.66161°
Altitude
613.147 km
Speed
7.548 km/s
True Right ascension
03h 31m 19s
True Declination
0° 00' 00"
Sunlit
Object was in full shadow at epoch
Visualization orbit readout
Latitude
Unknown
Longitude
Unknown
Altitude
Unknown
Speed
Unknown
Apparent Right ascension
Unknown
Apparent Declination
Unknown
Sunlit
N/A
Visualization observer readout
Local Sidereal Time
17:43:42
Azimuth
Unknown
Elevation
Unknown
Doppler factor
Unknown
Orbital elements
Apogee altitude
633.63 km
Perigee altitude
565.152 km
Semi-major axis
6,977.528 km
Eccentricity
0.00491
Inclination
98.6528°
RAAN
52.8317°
Arg. of periapsis
103.573°
True anomaly
256.54836°
Mean anomaly
257.0957°
Eccentric anomaly
256.82195°
Mean motion
3.72384 °/min
Orbital period
96.67 mins
BSTAR
0.0022924
Loading maneuver chart data...
Computing Atmospheric mass density...
Loading historical data...
Loading historical data...
Loading historical data...
Loading historical data...
Loading historical data...
Loading historical data...
Loading historical data...

Documentation

Showing up to 5 results
|